Main page
METAR-TAF:

METAR-TAF

Airports :

Rajmata Vijaya Raje Scindia Airport

Gwalior, India

latitude: 26-17-36N, longitude: 78-13-40E, elevation: 188 m

Current weather observation

The report was made 41 minutes ago, at 20:30 UTC
Wind 2 kt from variable directions
Temperature 14°C
Humidity 82%
Pressure 1017 hPa
Visibility: 3000 m
Clear sky
mist

METAR: VIGR 212030Z VRB02KT 3000 BR SKC 14/11 Q1017 NOSIG

Time: 02:41 (21:11 UTC)


TAF: missing

Weather observations and forecasts of more than 4000 airports (METAR and TAF reports).

The available stations are represented by yellow and red dots on the map.

Hover mouse over dot to see the name of the station.

Then click to see weather observations and forecasts.

To change the map : click on the green buttons with a black cross to zoom in, on the green button with a dash to zoom out, or on the green arrows for adjacent maps.


METAR-TAF: